Regional Weather Roundup
Issued by NWS Little Rock, AR

Home | Current Version | Previous Version | Graphics & Text | Print | Product List | Glossary On
Versions: 1 2 3 4 5 6 7 8 9 10 11 12 13 14 15 16 17 18 19 20 21 22 23 24 25 26 27 28 29 30 31 32
000
ASUS44 KLZK 161705
RWRLZK

WEATHER ROUNDUP FOR ARKANSAS
NATIONAL WEATHER SERVICE LITTLE ROCK AR
1200 PM CDT MON OCT 16 2017

NOTE: "FAIR" INDICATES FEW OR NO CLOUDS BELOW 12,000 FEET WITH NO
SIGNIFICANT WEATHER AND/OR OBSTRUCTIONS TO VISIBILITY.

ARZ001-003-010-029-161800-
NORTHWEST ARKANSAS

CITY           SKY/WX    TMP DP  RH WIND       PRES   REMARKS
FAYETTEVILLE   SUNNY     62  39  42 E9        30.42F
FORT SMITH     SUNNY     63  40  42 NE10      30.42F
HARRISON       SUNNY     62  33  33 E9        30.43F
BENTONVILLE    SUNNY     61  35  37 E12       30.45F
ROGERS         SUNNY     61  37  41 MISG      30.43F
SILOAM SPGS    SUNNY     61  35  37 VRB5      30.44F
HIGHFILL       SUNNY     62  36  37 E8        30.44F
SPRINGDALE     SUNNY     61  37  41 E8G15     30.44F
$$

ARZ004-005-016-161800-
NORTH CENTRAL ARKANSAS

CITY           SKY/WX    TMP DP  RH WIND       PRES   REMARKS
BATESVILLE     SUNNY     62  39  42 NE8       30.42F
FLIPPIN        SUNNY     63  38  39 N5        30.43F
MTN HOME       SUNNY     62  36  37 VRB3      30.42S
$$

ARZ040-041-161800-
WEST CENTRAL ARKANSAS

CITY           SKY/WX    TMP DP  RH WIND       PRES   REMARKS
MENA           NOT AVBL
$$

ARZ009-017-025-026-028-161800-
NORTHEAST ARKANSAS

CITY           SKY/WX    TMP DP  RH WIND       PRES   REMARKS
JONESBORO      SUNNY     63  42  46 NE12G18   30.40S
WALNUT RIDGE   SUNNY     62  40  44 NE9       30.41F
BLYTHEVILLE    SUNNY     62  40  44 NE14G21   30.39F
NW BLYTHEVILLE SUNNY     61  39  44 NE9G22    30.39S
$$

ARZ022-023-033-042-044-161800-
CENTRAL ARKANSAS

CITY           SKY/WX    TMP DP  RH WIND       PRES   REMARKS
LITTLE ROCK    MOSUNNY   64  43  46 NE13G20   30.42S
N LITTLE ROCK    N/A     64  44  48 E10       30.43F
JACKSONVILLE   SUNNY     63  42  46 NE9       30.41S
SEARCY         SUNNY     64  41  42 NE12G17   30.41F
HOT SPRINGS    SUNNY     65  42  43 NE12      30.41F
RUSSELLVILLE   SUNNY     63  40  42 VRB5      30.42F
CLINTON        FAIR      64  37  36 NE7       30.42S
$$

ARZ036-161800-
EAST ARKANSAS

CITY           SKY/WX    TMP DP  RH WIND       PRES   REMARKS
WEST MEMPHIS   SUNNY     62  41  46 NE14G23   30.37S
$$

ARZ050-053-066-070-073-161800-
SOUTHWEST ARKANSAS

CITY           SKY/WX    TMP DP  RH WIND       PRES   REMARKS
ARKADELPHIA    FAIR      65  43  44 NE12G17   30.41F
CAMDEN         SUNNY     68  41  37 NE12      30.39S
TEXARKANA      SUNNY     65  40  39 NE13G18   30.39F
EL DORADO      SUNNY     65  43  44 NE13      30.38F
DE QUEEN       SUNNY     66  42  41 E9        30.39F
$$

ARZ056-057-069-161800-
SOUTHEAST ARKANSAS

CITY           SKY/WX    TMP DP  RH WIND       PRES   REMARKS
PINE BLUFF     SUNNY     65  39  38 N17G23    30.40S
STUTTGART      SUNNY     62  41  46 NE14G21   30.40F
MONTICELLO     SUNNY     65  41  41 NE12G22   30.37F

$$






USA.gov is the U.S. government's official web portal to all federal, state and local government web resources and services.